Miscellaneous Local Product
Issued by NWS Hastings, NE

Home | Current Version | Previous Version | Text Only | Print | Product List | Glossary Off
Versions: 1 2 3 4 5 6 7 8 9 10 11 12 13 14 15 16 17 18 19 20 21 22 23 24 25 26 27 28 29 30 31 32 33 34 35 36 37 38 39 40 41 42 43 44 45 46 47 48 49 50

000
AXUS43 KGID 281102
MISGRI

GID CWA HOURLY WEATHER ROUNDUP
NATIONAL WEATHER SERVICE HASTINGS NE
600 AM CDT SAT MAR 28 2015

NOTE: "FAIR" INDICATES FEW OR NO CLOUDS BELOW 12,000 FEET WITH NO
SIGNIFICANT WEATHER AND/OR OBSTRUCTIONS TO VISIBILITY.

...SOUTH CENTRAL NEBRASKA...

CITY           SKY/WX    TMP DP  RH WIND       PRES   REMARKS
GRAND ISLAND   CLEAR     29  23  78 E6        30.03R WCI  23
HASTINGS       CLEAR     27  22  81 E5        30.01R WCI  22
KEARNEY        CLEAR     27  21  80 E5        30.00S WCI  21
ORD            MOCLDY    24  20  84 CALM      30.00R
YORK           CLOUDY    32  27  80 SE8       30.05R WCI  25
AURORA         PTCLDY    30  27  88 E5        30.03R WCI  26
LEXINGTON      CLEAR     29  26  88 W6        29.98R WCI  23
HOLDREGE       CLEAR     28  24  84 NE7       29.98R WCI  21
HEBRON         PTCLDY    32  23  69 E6        30.03R WCI  26

...NEBRASKA PANHANDLE...

CITY           SKY/WX    TMP DP  RH WIND       PRES   REMARKS
CHADRON        CLEAR     31  27  85 SW5       29.95S WCI  26
ALLIANCE       CLEAR     30  27  88 CALM      29.97S
SCOTTSBLUFF    CLEAR     32  27  81 W7        29.99S WCI  26
SIDNEY         CLEAR     35  27  72 NW9       30.00S WCI  28

...WESTERN AND NORTH CENTRAL NEBRASKA...

CITY           SKY/WX    TMP DP  RH WIND       PRES   REMARKS
VALENTINE      CLEAR     28  25  88 CALM      29.97F
AINSWORTH      CLEAR     32  29  88 CALM      29.98S
ONEILL         CLEAR     31  28  89 S6        30.00S WCI  25
BROKEN BOW     CLEAR     28  24  85 CALM      29.97S
IMPERIAL         N/A     34  27  75 NW5       29.98R WCI  30
NORTH PLATTE   CLEAR     29  27  92 SE3       29.97R
MCCOOK         PTCLDY    36  31  82 W9        29.96R WCI  29

...EASTERN NEBRASKA...

CITY           SKY/WX    TMP DP  RH WIND       PRES   REMARKS
NORFOLK        CLEAR     28  23  81 SE7       30.05R WCI  21
SO SIOUX CITY  CLOUDY    32  26  78 SE10      30.11R WCI  24
TEKAMAH        CLOUDY    33  26  75 SE12      30.11S WCI  24
COLUMBUS       CLOUDY    30  19  64 E7        30.08R WCI  23
ALBION         PTCLDY    30  24  80 SE6       30.03R WCI  24
OMAHA EPPLEY   MOCLDY    34  27  75 SE12      30.12R WCI  25
MILLARD        PTCLDY    33  27  77 SE8       30.11R WCI  26
LINCOLN        CLOUDY    34  24  67 SE8       30.09R WCI  27
NEBRASKA CITY  MOCLDY    32  27  83 SE8       30.10S WCI  25
BEATRICE       CLOUDY    35  26  70 E6        30.05S WCI  30
FALLS CITY     CLOUDY    34  27  75 E12       30.10R WCI  25

...NORTHERN KANSAS...

CITY           SKY/WX    TMP DP  RH WIND       PRES   REMARKS
GOODLAND       CLEAR     41  33  73 W6        30.00S
HILL CITY      PTCLDY    36  31  82 W6        29.95S WCI  31
NORTON         SUNNY     34  28  80 N6        29.96R WCI  29
PHILLIPSBURG   CLEAR     36  28  75 NW3       29.98R
SMITH CENTER   CLEAR     32  28  86 NE9       29.99R WCI  24
BELOIT         CLEAR     30  25  80 NE5       29.99R WCI  25
HAYS           CLEAR     36  27  69 NW7       29.94S WCI  30
RUSSELL        CLEAR     33  31  92 SE8       29.93R WCI  26
CONCORDIA      CLEAR     32  24  72 E3        30.00R
SALINA         CLEAR     37  29  72 CALM      29.97F
TOPEKA         CLOUDY    40  25  55 E10       30.08S WCI  33



USA.gov is the U.S. government's official web portal to all federal, state and local government web resources and services.